Overview Statistics Trail Chart Weather Telemetry Raw packets
 

This is the latest recevied weather packets stored in our database for station/object W0AKY-13. If no packets are shown the sender has not sent any weather packets the latest 10 day(s).

<< 36 37 38 39 40 41 42 >>
Time Temp. Humidity Pressure Rain* Wind** Luminosity Snow
1788366463 33.33° C 51% 1014.6 hPa 0 mm - 464 W/m² -
1788366158 33.89° C 53% 1014.8 hPa 0 mm - 451 W/m² -
1788365854 33.33° C 57% 1014.6 hPa 0 mm - 443 W/m² -
1788365549 33.33° C 55% 1014.5 hPa 0 mm - 433 W/m² -
1788365246 33.33° C 55% 1014.6 hPa 0 mm - 417 W/m² -
1788364946 33.33° C 54% 1014.8 hPa 0 mm - 408 W/m² -
1788364653 32.78° C 55% 1014.8 hPa 0 mm - 393 W/m² -
1788364343 32.78° C 59% 1014.9 hPa 0 mm - 384 W/m² -
1788364038 32.78° C 57% 1014.6 hPa 0 mm - 375 W/m² -
1788363733 32.22° C 57% 1014.5 hPa 0 mm - 364 W/m² -
1788363433 31.67° C 55% 1014.6 hPa 0 mm - 354 W/m² -
1788363132 31.67° C 57% 1014.5 hPa 0 mm - 339 W/m² -
1788362828 31.67° C 57% 1014.6 hPa 0 mm - 329 W/m² -
1788362524 31.67° C 59% 1014.6 hPa 0 mm - 321 W/m² -
1788362219 31.67° C 58% 1014.5 hPa 0 mm - 178 W/m² -
1788361914 30.56° C 61% 1014.4 hPa 0 mm - 224 W/m² -
1788361609 30.56° C 60% 1014.9 hPa 0 mm - 290 W/m² -
1788361304 30° C 61% 1014.6 hPa 0 mm - 279 W/m² -
1788361004 30° C 61% 1014.5 hPa 0 mm - 278 W/m² -
1788360703 29.44° C 63% 1014.6 hPa 0 mm - 260 W/m² -
1788360425 28.89° C 64% 1014.3 hPa 0 mm - 260 W/m² -
1788360096 28.33° C 67% 1014.5 hPa 0 mm - 75 W/m² -
1788359790 27.78° C 66% 1014.5 hPa 0 mm - 157 W/m² -
1788359486 27.78° C 67% 1014.4 hPa 0 mm - 56 W/m² -
1788359181 27.22° C 67% 1014.4 hPa 0 mm - 45 W/m² -

* Rain latest hour (hover to see other rain measurements)
** Current wind speed in m/s (hover to see current wind gust speed)